Погода в Новотроицке

Россия / Новосибирская область     55°20′18″N   75°59′40″E
темп.,
°C
ветер,
м/с
пор.,
м/с
влажн.,
%
обл.,
%
осадки,
мм/ч
давл.,
гПа
погр.,
м
14 апреля, ср
ср1401:00+2з5893100 0.0 1037296
04:00+2зюз5109797 0.0 1035323
07:00+1зюз5109667 0.0 1034193
10:00+1зюз61299100 0.0 1033323
13:00+3зюз71597100 0.0 1030408
16:00+5зюз71496100 0.0 1028498
19:00+7з6129012 0.0 1027402
22:00+4зюз4995100 0.0 1027150
15 апреля, чт
чт1501:00+4з3596100 0.0 102774
04:00+4з3396100 0.0 102626
07:00+4зюз3493100 0.0 102647
10:00+5юз369630 0.0 1026111
13:00+11зюз578442 0.0 1024492
16:00+15з69646 0.1 10221477
19:00+15зсз58625 0.1 1021520
22:00+11зюз35785 0.0 102060
16 апреля, пт
пт1601:00+9зюз4108931 0.0 1019155
04:00+8юз411935 0.0 1017198
07:00+7зюз512885 0.0 1016230
10:00+11зюз613721 0.0 1014419
13:00+15зюз7105588 0.0 1013727
16:00+16зсз79513 0.0 10121583
19:00+8с9107776 0.1 1015620
22:00+3ссв71194100 0.1 1018704
17 апреля, сб
сб1701:00+4св5979100 0.2 1018941
04:00+1св71180100 0.1 1019613
07:00−1св697794 0.1 1020529
10:000всв567196 0.0 1020682
13:000ссв66515 0.0 10181079
16:00+1ссв44445 0.0 10181315
19:00+1с33425 0.0 10191417
22:00−1ссз2256100 0.0 101923
18 апреля, вс
вс1801:00−1юз225597 0.0 101833
04:00−1юз35605 0.0 1017156
07:00−1юз3765100 0.0 1017195
10:000сз565989 0.0 1017868
13:00+1сз564245 0.1 10191315
16:00+1сз56340 0.0 10201599
19:00+1ссз44367 0.0 10211552
22:00−2ссз345399 0.0 102290